www.pogodaiklimat.ru

Погода и климат >> Архив погоды >> Бельгия >> Остенде


ПОГОДА в Остенде

  • Прогноз погоды в Остенде
  • Монитор погоды в Остенде

АРХИВ ПОГОДЫ в Остенде

Время (UTC), дата Ветер
(напр.,м/с)
 
Видим.   Явления Облачность Т
(С)
Тd
(С)
f
(%)
Тe
(С)
Тes
(С)
Комфортность P
(гПа)
Po
(гПа)
Тmin
(С)
Tmax
(С)
R
(мм)
R24
(мм)
S
(см)
01 14.09 В 2
{3}
30 км 1/1 700 м
[Sc]
+11.5 +9.1 85 +10 +10 1035.1 1034.5
02 14.09 В 3
{3}
30 км 1/1 700 м
[Sc diur, vesp]
+12.2 +9.7 85 +11 +11 1034.9 1034.3
03 14.09 СВ 2
{3}
30 км 4/4 700 м
[Sc]
+12.5 +9.9 84 +12 +12 1034.8 1034.2
04 14.09 В 3
{4}
30 км 4/4 700 м
[Sc]
+12.0 +9.9 87 +10 +10 1034.3 1033.7
05 14.09 В 3
{4}
15 км 1/0
[Ci fib]
+10.3 +8.9 91 +8 +8 1034.2 1033.6
06 14.09 В 2
{5}
10 км 1/0
[Ci fib]
+11.1 +9.5 90 +10 +10 1034.0 1033.4 +10.2
07 14.09 В 3
{4}
16 км 1/0
[Ci fib]
+13.5 +10.6 83 +12 +13 1034.2 1033.6
08 14.09 В 3
{4}
20 км 1/0
[Ci fib]
+15.3 +10.8 75 +15 +17 1034.3 1033.7
09 14.09 В 2
{4}
20 км 3/0
[Ci fib]
+17.0 +11.5 70 +17 +22 1034.2 1033.6
10 14.09 В 3
{4}
25 км 4/0
[Ci]
+18.9 +10.9 60 +20 +26 1033.7 1033.1
11 14.09 ЮВ 2
{5}
25 км 3/1 1080 м
[Cu hum Ci fib]
+20.2 +10.6 54 +22 +30 комфорт 1033.3 1032.7
12 14.09 С 5
{8}
25 км 3/1 1050 м
[Cu hum Ci fib]
+19.8 +11.8 60 +21 +25 комфорт 1032.8 1032.2
13 14.09 С 6
{8}
25 км 1/1 960 м
[Cu hum Ci fib]
+19.9 +11.8 60 +21 +24 комфорт 1032.3 1031.7
14 14.09 С 6
{9}
25 км 1/0
[Ci fib]
+19.9 +11.5 58 +21 +24 комфорт 1031.7 1031.1
15 14.09 С 5
{9}
25 км 4/0
[Ci fib]
+19.7 +10.5 55 +21 +23 комфорт 1030.6 1030.0
16 14.09 СВ 5
{7}
25 км 6/0
[Ci sp]
+19.1 +11.2 60 +20 +21 1030.2 1029.6
17 14.09 СВ 3
{7}
25 км 6/0
[Ci sp]
+18.8 +11.0 60 +20 +20 1029.7 1029.1
18 14.09 СВ 3
{9}
25 км 8/0
[Ci sp]
+16.4 +10.6 69 +16 +16 1029.5 1028.9 +20.9
19 14.09 СВ 2
{3}
25 км 8/0
[Ci sp]
+15.3 +10.9 75 +15 +15 1029.5 1028.9
20 14.09 СВ 2
{3}
25 км 8/0
[Ci sp]
+14.2 +10.5 78 +14 +14 1029.2 1028.6
21 14.09 В 2
{3}
18 км 5/0
[Ci fib]
+12.1 +9.7 85 +11 +11 1028.4 1027.8
22 14.09 В 1
{2}
12 км 4/0
[Ci fib]
+11.0 +9.2 89 +11 +11 1028.2 1027.6
23 14.09 ЮВ 1
{1}
6000 м местами туман поземный 4/0
[Ci fib]
+11.0 +10.0 94 +11 +11 1027.5 1026.9
00 15.09 ЮЗ 1
{3}
4500 м местами туман поземный 4/0
[Ci fib]
+9.1 +7.9 92 +8 +8 1027.2 1026.6
03 15.09 Ю 2
{2}
3500 м дымка 4/0
[Ci fib]
+8.1 +7.1 93 +6 +6 1025.7 1025.1
04 15.09 Ю 1
{2}
2000 м местами туман поземный 4/0
[Ci fib]
+7.5 +6.4 93 +6 +6 1025.5 1024.9
05 15.09 штиль 0
{2}
1100 м туман местами 3/0
[Ci fib]
+6.7 +5.6 93 +6 +6 1025.4 1024.7
06 15.09 Ю 1
{2}
2000 м местами туман поземный 3/0
[Ci fib]
+6.8 +6.0 95 +6 +6 1025.2 1024.6 +6.3
07 15.09 ЮЗ 1
{2}
5000 м дымка 3/0
[Ci fib]
+10.2 +8.5 89 +10 +11 1025.1 1024.5
08 15.09 ЮЗ 2
{3}
9000 м 5/0
[Ci sp]
+14.7 +11.9 83 +14 +17 1025.3 1024.7
09 15.09 ЮЗ 3
{4}
12 км 4/0
[Ci fib]
+18.3 +13.7 75 +19 +23 1025.5 1024.9
10 15.09 З 4
{6}
20 км 3/0
[Ci fib]
+20.1 +12.5 62 +22 +27 комфорт 1025.5 1024.9
11 15.09 З 5
{7}
30 км 1/0
[Ci fib]
+20.8 +10.3 51 +23 +27 комфорт 1025.3 1024.7
12 15.09 З 6
{8}
30 км {туман} 1/0
[Ci fib]
+19.6 +12.5 64 +21 +24 комфорт 1025.1 1024.5
13 15.09 З 6
{8}
30 км 1/0
[Ci fib]
+20.0 +5.4 38 +20 +24 1024.8 1024.2
14 15.09 СЗ 5
{8}
30 км 3/0
[Ci fib]
+19.7 +12.5 63 +21 +24 комфорт 1024.4 1023.8
15 15.09 СЗ 5
{8}
30 км 3/0
[Ci fib]
+19.6 +11.9 61 +21 +23 комфорт 1023.9 1023.3
16 15.09 СЗ 4
{6}
30 км 3/0
[Ci fib]
+19.4 +12.6 65 +21 +22 комфорт 1023.5 1022.9
17 15.09 СЗ 3
{6}
30 км 5/0
[Ci sp]
+18.3 +14.2 77 +19 +19 1023.5 1022.9
18 15.09 СЗ 1
{8}
30 км 6/0
[Ci sp]
+17.3 +13.8 80 +18 +18 1023.4 1022.8 +21.2
19 15.09 С 1
{3}
25 км 6/0
[Ci fib]
+16.5 +13.5 82 +17 +17 1023.5 1022.9
20 15.09 Ю 2
{3}
25 км 6/0
[Ci sp]
+14.6 +12.3 86 +14 +14 1023.4 1022.8
21 15.09 Ю 2
{3}
15 км 8/0
[Ci sp]
+14.2 +12.6 90 +14 +14 1023.1 1022.5
22 15.09 В 1
{2}
12 км 9/0
[Ci sp]
+14.5 +12.3 87 +15 +15 1023.1 1022.5
23 15.09 ЮВ 2
{2}
10 км 9/0
[Ci sp]
+13.2 +11.7 91 +12 +12 1022.9 1022.3
00 16.09 Ю 2
{3}
8000 м 9/0
[Ci sp]
+13.1 +11.5 90 +12 +12 1022.1 1021.5
01 16.09 Ю 1
{3}
8000 м 9/0
[Ci sp]
+13.0 +11.2 89 +13 +13 1022.1 1021.5
02 16.09 Ю 2
{3}
8000 м 9/0
[Ci sp]
+13.2 +11.1 87 +12 +12 1021.5 1020.9
03 16.09 ЮЗ 2
{3}
10 км 9/0
[Ac As Ci sp]
+13.6 +11.0 84 +13 +13 1020.9 1020.3
04 16.09 ЮЗ 2
{3}
12 км 9/0
[Ac As Ci sp]
+13.2 +10.8 85 +12 +12 1020.7 1020.1
05 16.09 ЮЗ 2
{4}
15 км 10/0
[Ac As Ci sp]
+13.2 +10.3 83 +12 +12 1020.6 1020.0
06 16.09 ЮЗ 2
{4}
12 км 9/1 2000 м
[Sc Ac As]
+13.4 +10.9 85 +13 +13 1020.3 1019.7 +12.8
07 16.09 ЮЗ 2
{3}
12 км в посл. час дождь 9/3 1140 м
[Sc Ac As]
+14.8 +12.4 86 +14 +15 1020.6 1020.0
08 16.09 ЮЗ 2
{3}
9000 м 9/1 1110 м
[Sc Ac As]
+16.7 +14.4 86 +17 +18 1021.0 1020.4
09 16.09 З 3
{4}
9000 м {дождь} 9/1 1200 м
[Sc Ac As]
+18.5 +16.0 85 +19 +21 1021.3 1020.7
10 16.09 З 3
{5}
15 км в посл. час дождь 9/4 450 м
[Cu Sc Ac As]
+18.7 +16.0 84 +20 +21 1021.3 1020.7
11 16.09 СЗ 4
{6}
15 км в посл. час дождь 9/5 450 м
[Cu Sc Ac trans]
+19.1 +15.5 80 +20 +22 1021.4 1020.8
12 16.09 С 4
{6}
15 км {дождь} 10/9 360 м
[Cu Sc]
+18.9 +14.8 77 +20 +22 1021.5 1020.9 0.0
13 16.09 СЗ 4
{6}
15 км 10/9 270 м
[Sc]
+18.3 +14.8 80 +19 +19 1021.6 1021.0
14 16.09 СЗ 3
{6}
3000 м дождь 10/10 120 м
[Frnb]
+16.9 +15.5 91 +17 +17 1021.6 1021.0
15 16.09 СЗ 2
{6}
6000 м в посл. час дождь {морось} 10/9 120 м
[Frnb]
+16.5 +15.0 91 +17 +17 1021.6 1021.0
16 16.09 СВ 4
{6}
9000 м 10/9 210 м
[St]
+16.4 +14.8 90 +16 +16 1021.4 1020.8
17 16.09 СВ 4
{6}
12 км в посл. час дождь 10/9 180 м
[St]
+15.7 +14.0 90 +15 +15 1021.5 1020.9
18 16.09 СВ 3
{6}
15 км {дождь, морось} 9/9 270 м
[St]
+15.6 +13.9 90 +15 +15 1021.8 1021.2 +19.3 0.4
19 16.09 СВ 3
{6}
11 км в посл. час морось 9/9 270 м
[Frnb]
+15.0 +13.3 90 +14 +14 1022.0 1021.4
20 16.09 СВ 4
{5}
11 км 9/9 270 м
[Sc]
+15.1 +12.6 85 +14 +14 1022.5 1021.9
21 16.09 СВ 3
{6}
20 км {морось} 9/9 210 м
[Sc]
+14.7 +12.9 89 +14 +14 1022.7 1022.1
22 16.09 С 3
{5}
20 км 9/9 300 м
[Sc]
+15.2 +11.8 80 +15 +15 1022.9 1022.3
23 16.09 С 3
{5}
20 км 9/9 300 м
[Sc]
+15.0 +12.0 82 +14 +14 1023.0 1022.4
00 17.09 СВ 3
{6}
20 км 9/9 300 м
[Sc]
+14.7 +12.0 84 +14 +14 1022.6 1022.0 0.2
01 17.09 ЮЗ 1
{3}
20 км 9/9 300 м
[Sc]
+14.1 +12.3 89 +14 +14 1022.7 1022.1
02 17.09 С 2
{4}
20 км 9/9 300 м
[Sc]
+14.7 +10.9 78 +14 +14 1022.4 1021.8
03 17.09 СВ 3
{5}
20 км 9/9 300 м
[Sc]
+14.3 +10.5 78 +13 +13 1022.4 1021.8
04 17.09 С 2
{4}
20 км 9/9 570 м
[Sc]
+14.2 +9.5 73 +14 +14 1022.5 1021.9
05 17.09 С 2
{4}
20 км 9/9 1200 м
[Sc]
+14.2 +8.7 69 +14 +14 1022.5 1021.9
06 17.09 СЗ 4
{5}
30 км 8/8 1000 м
[Sc]
+14.4 +8.8 69 +13 +13 1022.8 1022.2 +13.8 0.2
07 17.09 С 2
{5}
30 км 5/5 900 м
[Sc Ci fib]
+14.4 +9.1 70 +14 +14 1023.1 1022.5
08 17.09 СЗ 3
{5}
30 км 8/8 840 м
[Cu Sc Ci fib]
+15.9 +9.0 64 +15 +16 1023.6 1023.0
09 17.09 СЗ 4
{6}
30 км 5/4 870 м
[Cu Sc Ci fib]
+16.8 +9.6 62 +16 +18 1023.9 1023.3
10 17.09 СЗ 5
{6}
30 км 5/4 800 м
[Cu Sc Ci fib]
+16.8 +10.4 66 +16 +18 1024.2 1023.6
11 17.09 СЗ 6
{8}
30 км 5/5 660 м
[Cu Sc Ci fib]
+16.9 +10.8 67 +16 +18 1024.4 1023.8
12 17.09 С 6
{8}
30 км 8/6 700 м
[Cu Sc Ci fib]
+17.2 +10.0 63 +16 +18 1024.6 1024.0
13 17.09 С 6
{9}
30 км 5/4 800 м
[Cu Sc Ci fib]
+16.9 +9.2 60 +16 +18 1024.7 1024.1
14 17.09 С 6
{8}
30 км 5/5 800 м
[Cu Sc Ci fib]
+16.7 +8.4 58 +16 +17 1025.1 1024.5
15 17.09 С 6
{10}
30 км 6/6 800 м
[Cu Sc Ci fib]
+16.4 +9.2 62 +15 +16 1025.1 1024.5
16 17.09 С 6
{9}
30 км 8/6 900 м
[Cu Sc Ci fib]
+15.6 +8.6 63 +14 +15 1025.3 1024.7
17 17.09 С 7
{10}
30 км 5/4 900 м
[Cu Sc Ac trans Ci fib]
+15.1 +7.1 59 +13 +13 1025.5 1024.8
18 17.09 С 5
{10}
30 км 3/1 1050 м
[Cu Sc Ac trans Ci fib]
+14.2 +6.2 59 +13 +13 1025.6 1025.0 +17.9
19 17.09 С 7
{11}
30 км 8/6 1000 м
[Cu Sc Ac trans Ci fib]
+14.4 +6.8 60 +12 +12 1026.1 1025.5
20 17.09 С 6
{11}
30 км 4/3 1000 м
[Cu Sc Ac trans Ci fib]
+13.7 +5.1 56 +12 +12 1026.4 1025.8
21 17.09 С 5
{11}
25 км 6/5 1000 м
[Cu Sc Ac trans Ci fib]
+13.8 +5.6 58 +12 +12 1026.6 1026.0
22 17.09 С 5
{8}
25 км 4/3 1050 м
[Cu Sc Ac trans Ci fib]
+13.6 +4.9 56 +12 +12 1026.9 1026.3
23 17.09 СВ 5
{9}
25 км 6/5 1050 м
[Cu Sc Ac trans Ci fib]
+13.6 +5.2 57 +12 +12 1027.2 1026.6
00 18.09 СВ 4
{11}
25 км 4/3 1050 м
[Cu Sc Ac trans Ci fib]
+12.9 +5.4 60 +11 +11 1027.2 1026.6
01 18.09 СВ 5
{8}
25 км 6/5 1050 м
[Cu Sc Ac trans Ci fib]
+13.8 +5.5 57 +12 +12 1027.2 1026.6
02 18.09 СВ 3
{8}
25 км 6/5 1050 м
[Cu Sc Ac trans Ci fib]
+12.5 +5.7 63 +11 +11 1027.1 1026.5
03 18.09 С 4
{8}
25 км 4/3 900 м
[Cu Sc Ac trans Ci fib]
+13.7 +7.1 64 +12 +12 1027.2 1026.6
04 18.09 СВ 4
{6}
25 км 5/4 900 м
[Cu Sc Ac trans Ci fib]
+13.5 +7.4 67 +12 +12 1027.1 1026.5
05 18.09 В 2
{6}
25 км 6/5 900 м
[Cu Sc Ac trans Ci fib]
+12.2 +7.5 73 +11 +11 1027.5 1026.8
06 18.09 В 1
{8}
20 км 6/6 900 м
[Cu Sc]
+11.4 +7.1 75 +11 +11 1027.8 1027.2 +10.8
07 18.09 Ю 1
{2}
20 км 6/5 900 м
[Cu Sc Ci fib]
+12.0 +7.5 74 +12 +13 1028.5 1027.9
08 18.09 штиль 0
{2}
20 км 5/5 900 м
[Cu Sc Ci fib]
+13.5 +8.6 72 +13 +15 1028.9 1028.3
09 18.09 нст 1
{3}
20 км 5/5 1050 м
[Cu Sc Ci fib]
+16.2 +7.6 57 +17 +20 1029.3 1028.7
10 18.09 СВ 4
{6}
20 км 5/5 1050 м
[Cu Sc Ci fib]
+16.7 +5.5 48 +16 +19 1029.3 1028.7
11 18.09 С 5
{7}
20 км 5/4 1140 м
[Cu Sc Ci fib]
+17.0 +6.0 48 +16 +19 1029.4 1028.8
12 18.09 С 5
{8}
20 км 4/4 1140 м
[Cu Sc]
+17.0 +5.9 48 +16 +20 1029.3 1028.7
13 18.09 С 4
{10}
20 км 4/4 1140 м
[Cu Sc]
+17.0 +6.0 48 +17 +20 1029.2 1028.6
14 18.09 С 6
{10}
20 км 4/4 1140 м
[Cu Sc]
+16.9 +6.9 52 +16 +17 1029.1 1028.5
15 18.09 С 6
{10}
20 км 4/4 1080 м
[Sc]
+16.1 +6.8 54 +15 +16 1029.2 1028.6
16 18.09 С 5
{9}
20 км 4/4 1080 м
[Sc]
+15.9 +7.0 55 +15 +15 1028.9 1028.3
17 18.09 СВ 5
{8}
20 км 4/4 1080 м
[Sc]
+15.1 +7.3 60 +14 +14 1029.1 1028.4
18 18.09 СВ 5
{10}
20 км 3/3 1080 м
[Sc]
+14.3 +6.5 59 +13 +13 1029.1 1028.5 +17.8
19 18.09 СВ 5
{8}
20 км 3/3 1080 м
[Sc]
+14.0 +6.9 62 +12 +12 1029.4 1028.8
20 18.09 СВ 5
{8}
20 км 3/3 1080 м
[Sc]
+14.1 +7.0 62 +13 +13 1029.5 1028.9
21 18.09 СВ 3
{8}
20 км 3/3 1080 м
[Sc]
+13.6 +6.5 62 +13 +13 1029.8 1029.2
22 18.09 В 2
{7}
20 км 5/5 1020 м
[Sc]
+13.1 +8.3 73 +12 +12 1030.2 1029.6
23 18.09 В 2
{3}
20 км 9/9 900 м
[Sc]
+12.9 +8.5 75 +12 +12 1030.5 1029.9
00 19.09 В 3
{8}
20 км 9/9 900 м
[Sc]
+12.7 +9.2 79 +11 +11 1030.7 1030.1
01 19.09 В 2
{5}
20 км в посл. час дождь 9/9 900 м
[Sc]
+12.5 +8.5 77 +12 +12 1030.6 1030.0
02 19.09 В 1
{3}
20 км 9/9 900 м
[Sc]
+12.6 +8.5 76 +13 +13 1030.6 1030.0
03 19.09 В 1
{5}
20 км 9/9 900 м
[Sc]
+11.3 +7.0 75 +11 +11 1030.4 1029.8
04 19.09 штиль 0
{2}
20 км 9/9 900 м
[Sc]
+11.2 +7.9 80 +11 +11 1030.3 1029.7
05 19.09 Ю 1
{1}
20 км 9/9 900 м
[Sc]
+11.9 +8.3 79 +12 +12 1030.5 1029.9
06 19.09 С 1
{5}
20 км 9/9 720 м
[Sc]
+12.1 +7.9 75 +12 +12 1031.1 1030.4 +11.1
07 19.09 С 1
{4}
15 км в посл. час дождь 9/9 660 м
[Sc]
+12.7 +8.9 78 +13 +13 1031.4 1030.8
08 19.09 В 1
{3}
18 км 9/9 660 м
[Sc]
+13.8 +8.5 70 +14 +14 1032.0 1031.4
09 19.09 В 1
{4}
20 км {дождь} 8/8 930 м
[Sc]
+14.7 +8.6 67 +15 +16 1032.2 1031.6
10 19.09 С 3
{5}
20 км 8/8 930 м
[Cu Sc]
+15.7 +8.9 64 +15 +16 1032.3 1031.7
11 19.09 С 4
{6}
20 км 8/8 1020 м
[Cu Sc]
+16.0 +8.9 63 +15 +16 1032.3 1031.7
12 19.09 СВ 5
{7}
20 км {дождь} 6/6 1020 м
[Cu Sc]
+16.7 +8.3 58 +16 +18 1032.0 1031.4 0.0
13 19.09 С 5
{7}
20 км 5/5 1020 м
[Cu Sc]
+16.7 +9.3 62 +16 +18 1031.8 1031.2
14 19.09 С 5
{7}
20 км 4/4 1020 м
[Cu Sc]
+17.0 +9.9 63 +16 +18 1031.6 1031.0
15 19.09 С 5
{8}
20 км 4/4 1020 м
[Cu Sc]
+16.7 +9.5 62 +16 +17 1031.2 1030.6
16 19.09 СВ 5
{8}
20 км 3/3 1200 м
[Cu Sc]
+16.1 +9.3 64 +15 +16 1031.1 1030.5
17 19.09 СВ 5
{7}
30 км 3/1 1200 м
[Cu Sc Ci fib]
+15.5 +9.4 67 +14 +15 1030.8 1030.2
18 19.09 СВ 4
{8}
30 км 1/1 900 м
[Cu Sc Ci fib]
+14.7 +9.5 71 +14 +14 1031.0 1030.4 +17.7 0.0
19 19.09 СВ 4
{6}
30 км 1/1 750 м
[Cu Sc Ci fib]
+13.8 +9.5 75 +12 +12 1030.8 1030.2
20 19.09 СВ 4
{6}
30 км 1/1 750 м
[Cu hum Ci fib]
+13.6 +9.4 76 +12 +12 1030.9 1030.3
21 19.09 В 3
{6}
30 км 1/1 750 м
[Cu hum Ci fib]
+11.7 +8.9 83 +10 +10 1031.0 1030.3
22 19.09 В 3
{4}
30 км 1/0
[Ci fib]
+12.0 +9.2 83 +10 +10 1030.9 1030.3
23 19.09 В 3
{4}
30 км 1/0
[Ci fib]
+11.4 +9.0 85 +10 +10 1030.9 1030.3
00 20.09 В 3
{6}
25 км 1/0
[Ci fib]
+10.3 +8.5 89 +8 +8 1030.7 1030.1
01 20.09 В 3
{4}
15 км 1/0
[Ci fib]
+9.7 +8.2 90 +7 +7 1030.6 1030.0
02 20.09 В 2
{3}
12 км 1/0
[Ci fib]
+9.6 +8.1 90 +8 +8 1030.2 1029.6
03 20.09 В 3
{4}
10 км 1/0
[Ci fib]
+9.1 +7.6 90 +7 +7 1029.9 1029.3
04 20.09 В 2
{3}
10 км 1/0
[Ci fib]
+8.1 +6.5 90 +6 +6 1029.4 1028.8
05 20.09 В 2
{3}
10 км 1/0
[Ci fib]
+8.2 +6.5 89 +6 +6 1029.1 1028.5
06 20.09 В 3
{4}
12 км 3/0
[Ci fib]
+7.8 +5.7 87 +5 +5 1029.2 1028.5 +7.2
07 20.09 В 2
{4}
18 км 3/0
[Ci fib]
+10.4 +7.5 82 +9 +10 1029.3 1028.7
08 20.09 В 4
{5}
22 км 3/0
[Ci fib]
+12.7 +7.3 70 +11 +12 1029.5 1028.9
09 20.09 В 4
{7}
25 км 3/0
[Ci fib]
+15.4 +6.7 56 +15 +17 1029.4 1028.8
10 20.09 В 5
{9}
30 км 3/0
[Ci fib]
+16.7 +5.0 46 +16 +19 1028.7 1028.1
11 20.09 В 5
{9}
30 км 3/0
[Ci fib]
+17.9 +4.3 41 +18 +22 1028.0 1027.4
12 20.09 В 5
{9}
30 км 3/0
[Ci fib]
+19.2 +4.4 38 +19 +23 1027.4 1026.8
14 20.09 В 6
{8}
30 км 4/0
[Ci fib]
+20.5 +2.9 31 +21 +23 комфорт 1025.8 1025.2
15 20.09 В 6
{9}
30 км 4/0
[Ci fib]
+19.8 +2.5 32 +20 +21 1025.2 1024.6
16 20.09 В 6
{9}
30 км 5/0
[Ci fib]
+20.2 +3.9 34 +20 +21 1024.2 1023.6
17 20.09 В 6
{9}
30 км 6/0
[Ci fib]
+18.9 +3.8 37 +19 +19 1023.7 1023.1
18 20.09 В 6
{9}
30 км 6/0
[Ci fib]
+16.8 +3.8 42 +16 +16 1023.4 1022.8 +20.7
19 20.09 В 6
{9}
30 км 5/0
[Ci fib]
+15.6 +3.6 45 +14 +14 1022.9 1022.3
22 20.09 В 5
{7}
30 км 3/0
[Ci fib]
+13.6 +4.4 54 +12 +12 1021.7 1021.1
23 20.09 В 5
{7}
30 км 1/0
[Ci fib]
+12.4 +4.5 59 +10 +10 1021.3 1020.6

 

Местоположение метеостанции Остенде (Бельгия): широта 51.20 долгота 2.87 высота над уровнем моря 5 м.

В архиве по умолчанию представлена погода в Остенде за последнюю неделю. Архивные данные за месяц целиком и за предыдущие месяцы, начиная с января 2011 года, Вы можете получить, выбрав интересующий диапазон дат из раскрывающегося списка и нажав кнопку "Ввод!".


*Определитесь, кто Вы:
робот инопланетянин человек

Внимание! Время в таблицах - всемирное. Для получения местного времени необходимо прибавить поправку, которая равна 1 ч.

Смотрите также архив погоды в соседних городах и на ближайших метеорологических станциях:

Погода в Коксейде (Бельгия) (20 км)
Погода в Зебрюгге (Бельгия) (27 км)
Погода в Бейтеме (Бельгия) (38 км)
Погода в Цадзанде (Нидерланды) (41 км)
Погода в Дюнкерке (Франция) (41 км)
Погода на Отмели Vlakte Van Raan (Нидерланды) (43 км)
Погода в Флиссингене (Нидерланды) (58 км)
Погода в Хуфдплате (Нидерланды) (59 км)
Погода в Семмерзэйке (Бельгия) (63 км)
Погода в Генте (Бельгия) (66 км)

Пояснения к столбцам:

Ветер - указаны скорость ветра в м/с - средняя за 10 мин, порывы в срок и между сроками (в фигурных скобках) и направление, откуда дует ветер: С - северный, СВ - северо-восточный, В - восточный, ЮВ - юго-восточный, Ю - южный, ЮЗ - юго-западный, З - западный, СЗ - северо-западный.
Видимость - горизонтальная дальность видимости в метрах или километрах. При видимости от 1 до 10 км при отсутствии осадков обычно наблюдается дымка, при ухудшении видимости до 1 км и менее - туман. В сухую погоду видимость может ухудшаться дымом, пылью или мглою.
Явления - указаны атмосферные явления, наблюдавшиеся в срок или в последний час перед сроком; фигурными скобками обозначены явления, наблюдавшиеся между сроками (за 1-3 часа до срока); квадратными скобками обозначены град или гололедные отложения с указанием их диаметра в мм.
Облачность - указаны через наклонную черту общая и нижняя облачность в баллах и высота нижней границы облаков в метрах; квадратными скобками обозначены формы облаков: Ci - перистые, Cs - перисто-слоистые, Cc - перисто-кучевые, Ac - высококучевые, As - высокослоистые, Sc - слоисто-кучевые, Ns - слоисто-дождевые, Cu - кучевые, Cb - кучево-дождевые. Подробнее классификацию облаков см. в Атласе облаков (PDF).
T - Температура воздуха - температура, измеренная на высоте 2 м над землей.
Td - Температура точки росы - температура, при понижении до которой содержащийся в воздухе водяной пар достигнет насыщения.
f - Относительная влажность воздуха - влажноcть воздуха, измеренная на высоте 2 м над землей.
Te - Эффективная температура - температура, которую ощущает одетый по сезону человек в тени. Характеристика душности погоды. При расчете учитывается влияние влажности воздуха и скорости ветра на теплоощущения человека.
Tes - Эффективная температура на солнце - температура, которую ощущает человек, с поправкой на солнечный нагрев. Характеристика знойности погоды. Зависит от высоты солнца над горизонтом, облачности и скорости ветра. Ночью, в пасмурную погоду, а также при ветре 12 м/с и более поправка равна нулю.
P - Атмосферное давление - приведенное к уровню моря атмосферное давление.
Po - Атмосферное давление - измеренное на уровне метеостанции атмосферное давление.
Tmin - Минимальная температура - минимум температуры воздуха на высоте 2 м над землей.
Tmax - Максимальная температура - максимум температуры воздуха на высоте 2 м над землей.
R - Количество осадков - Количество выпавших осадков за период времени, мм. При наведении курсора мыши на число - период времени, за который выпало указанное количество осадков.
R24 - Количество осадков - Количество выпавших осадков за 24 часа, мм.
S - Снежный покров - Высота снежного покрова, см. При наведении курсора мыши на число - состояние снежного покрова и степень покрытия местности в баллах.